TDRS 10

Last updated on July 6, 2021, 3:27 p.m. UTC

1 27566U 02055A   21186.74168545  .00000092  00000-0  00000+0 0  9996
2 27566   7.5777  51.8054 0010324 339.0244 349.0703  1.00266526 68108
UTC
Height (km)
Latitude
Longitude
Inclination
Orbital Period
UTC large
Height (km)
Speed (km/s)
/
Latitude / Longitude
Inclination (degrees)
Orbital Period (minutes)
Azimuth
Elevation
Range (km)
Doppler Factor
iOS Compass Heading
iOS Angle